Location: Newark
(48.3831°N, 4.1956°E)
Time: 21:24:16
(UTC+00:00)

Envisat - Pass Details

Date: 15 November 2019
Orbit: 764 x 766 km, 98.1° (Epoch: 15 December)

Event Time Altitude Azimuth Distance (km) Brightness Sun altitude
Rises 05:07:39 0° 31° (NNE) 3,243 6.5 -16.9°
Reaches altitude 10° 05:11:22 10° 59° (ENE) 2,309 6.2 -16.3°
Maximum altitude 05:13:40 13° 86° (E) 2,102 6.4 -15.9°
Drops below altitude 10° 05:15:57 10° 113° (ESE) 2,301 6.8 -15.6°
Sets 05:19:37 0° 141° (SE) 3,220 7.1 -15.0°
